Mekoryuk, AK

5:08 AM AKST on February 21, 2018 (GMT -0900)
Mekoryuk

Weather History for PAMY - August, 2014

Change the Weather History Date:

Thursday, August 21, 2014

  Actual Average Record
Temperature  
Mean Temperature 50 °F -  
Max Temperature 60 °F 52 °F 68 °F (2004)
Min Temperature 39 °F 44 °F 32 °F (2003)
Degree Days  
Heating Degree Days 16    
Moisture  
Dew Point 43 °F    
Average Humidity 72    
Maximum Humidity 82    
Minimum Humidity 59    
Precipitation  
Precipitation 0.00 in - - ()
Sea Level Pressure  
Sea Level Pressure 30.17 in    
Wind  
Wind Speed 4 mph (NE)    
Max Wind Speed 14 mph    
Max Gust Speed -    
Visibility 8 miles    
Events      
Averages and records for this station are not official NWS values.
T = Trace of Precipitation, MM = Missing Value Source: NWS Daily Summary

Daily Weather History Graph

Daily Weather History Graph

Search for Another Location

Airport or City:

Trip Planner

Search our weather history database for the weather conditions in past years. The results will help you decide how hot, cold, wet, or windy it might be!

Date:

Astronomy

Aug. 21, 2014 Rise Set
Actual Time 7:33 AM AKDT 10:41 PM AKDT
Civil Twilight 6:43 AM AKDT 11:30 PM AKDT
Nautical Twilight 5:34 AM AKDT 12:38 AM AKDT
Astronomical Twilight 3:40 AM AKDT 2:35 AM AKDT
Moon 3:47 AM AKDT 8:40 PM AKDT
Length of Visible Light 16h 46m
Length of Day
15h 08m
Waning Crescent, 12% of the Moon is Illuminated
Aug 21
Waning Crescent
Aug 25
New
Sep 2
First Quarter
Sep 8
Full
Sep 15
Last Quarter

Hourly Weather History & Observations

Time (AKDT) Temp. Windchill Dew Point Humidity Pressure Visibility Wind Dir Wind Speed Gust Speed Precip Events Conditions
12:16 AM 46.4 °F - 39.2 °F 76% 30.21 in 5.0 mi Calm Calm - N/A   Overcast
12:36 AM 46.4 °F - 39.2 °F 76% 30.21 in 5.0 mi Calm Calm - N/A   Mostly Cloudy
12:56 AM 42.8 °F - 35.6 °F 76% 30.21 in 4.0 mi Calm Calm - N/A   Partly Cloudy
1:16 AM 42.8 °F - 35.6 °F 76% 30.21 in 5.0 mi Calm Calm - N/A   Clear
1:36 AM 42.8 °F - 35.6 °F 76% 30.21 in 0.8 mi Calm Calm - N/A   Unknown
1:56 AM 42.8 °F - 35.6 °F 76% 30.21 in 1.0 mi Calm Calm - N/A   Clear
2:16 AM 41.0 °F - 35.6 °F 81% 30.21 in 0.5 mi Calm Calm - N/A   Mostly Cloudy
2:36 AM 39.2 °F 37.0 °F 33.8 °F 81% 30.21 in 0.2 mi South 3.5 mph - N/A   Overcast
2:56 AM 42.8 °F - 35.6 °F 76% 30.21 in 0.5 mi Calm Calm - N/A   Overcast
3:16 AM 42.8 °F - 35.6 °F 76% 30.21 in 0.8 mi Calm Calm - N/A   Overcast
3:56 AM 42.8 °F 41.1 °F 35.6 °F 76% 30.21 in 0.5 mi West 3.5 mph - N/A   Mostly Cloudy
4:16 AM 41.0 °F 39.0 °F 35.6 °F 81% 30.21 in 0.2 mi SW 3.5 mph - N/A   Overcast
4:36 AM 42.8 °F 41.1 °F 35.6 °F 76% 30.21 in 1.2 mi WSW 3.5 mph - N/A   Mostly Cloudy
4:56 AM 42.8 °F 41.1 °F 35.6 °F 76% 30.21 in 3.0 mi WSW 3.5 mph - N/A   Overcast
5:16 AM 42.8 °F 39.3 °F 35.6 °F 76% 30.20 in 5.0 mi West 5.8 mph - N/A   Overcast
5:36 AM 44.6 °F 42.2 °F 37.4 °F 76% 30.20 in 6.0 mi West 4.6 mph - N/A   Overcast
5:56 AM 44.6 °F 41.4 °F 37.4 °F 76% 30.20 in 5.0 mi West 5.8 mph - N/A   Overcast
6:16 AM 44.6 °F 43.1 °F 39.2 °F 81% 30.20 in 8.0 mi West 3.5 mph - N/A   Scattered Clouds
6:36 AM 44.6 °F - 37.4 °F 76% 30.20 in 1.0 mi Calm Calm - N/A   Overcast
6:56 AM 44.6 °F - 37.4 °F 76% 30.20 in 6.0 mi Calm Calm - N/A   Overcast
7:16 AM 44.6 °F - 39.2 °F 81% 30.20 in 8.0 mi Calm Calm - N/A   Overcast
7:36 AM 44.6 °F - 39.2 °F 81% 30.19 in 4.0 mi Calm Calm - N/A   Overcast
7:56 AM 46.4 °F - 39.2 °F 76% 30.19 in 8.0 mi Calm Calm - N/A   Overcast
8:16 AM 46.4 °F - 39.2 °F 76% 30.19 in 10.0 mi Calm Calm - N/A   Overcast
8:36 AM 46.4 °F 45.2 °F 39.2 °F 76% 30.19 in 7.0 mi SE 3.5 mph - N/A   Overcast
8:56 AM 48.2 °F - 41.0 °F 76% 30.19 in 10.0 mi Calm Calm - N/A   Overcast
9:16 AM 48.2 °F - 42.8 °F 82% 30.19 in 8.0 mi Calm Calm - N/A   Overcast
9:36 AM 50.0 °F - 44.6 °F 82% 30.19 in 9.0 mi SSE 3.5 mph - N/A   Mostly Cloudy
9:56 AM 51.8 °F - 44.6 °F 76% 30.19 in 10.0 mi Calm Calm - N/A   Mostly Cloudy
10:16 AM 51.8 °F - 46.4 °F 82% 30.19 in 10.0 mi Calm Calm - N/A   Mostly Cloudy
10:36 AM 53.6 °F - 46.4 °F 77% 30.19 in 10.0 mi Calm Calm - N/A   Overcast
10:56 AM 55.4 °F - 48.2 °F 77% 30.19 in 10.0 mi Calm Calm - N/A   Overcast
11:16 AM 55.4 °F - 48.2 °F 77% 30.18 in 10.0 mi Calm Calm - N/A   Overcast
11:36 AM 55.4 °F - 48.2 °F 77% 30.18 in 10.0 mi NE 4.6 mph - N/A   Overcast
11:56 AM 57.2 °F - 46.4 °F 67% 30.18 in 10.0 mi East 3.5 mph - N/A   Overcast
12:16 PM 57.2 °F - 46.4 °F 67% 30.18 in 10.0 mi NE 3.5 mph - N/A   Overcast
12:36 PM 57.2 °F - 46.4 °F 67% 30.18 in 10.0 mi NE 3.5 mph - N/A   Overcast
12:56 PM 57.2 °F - 48.2 °F 72% 30.18 in 10.0 mi North 4.6 mph - N/A   Overcast
1:16 PM 57.2 °F - 46.4 °F 67% 30.18 in 10.0 mi NE 6.9 mph - N/A   Overcast
1:36 PM 59.0 °F - 46.4 °F 63% 30.18 in 10.0 mi NE 9.2 mph - N/A   Overcast
1:56 PM 60.8 °F - 46.4 °F 59% 30.18 in 10.0 mi NE 11.5 mph - N/A   Overcast
2:16 PM 59.0 °F - 46.4 °F 63% 30.18 in 10.0 mi NE 11.5 mph - N/A   Mostly Cloudy
2:36 PM 59.0 °F - 48.2 °F 67% 30.17 in 10.0 mi NE 11.5 mph - N/A   Partly Cloudy
2:56 PM 59.0 °F - 48.2 °F 67% 30.17 in 10.0 mi NE 11.5 mph - N/A   Clear
3:16 PM 60.8 °F - 46.4 °F 59% 30.17 in 10.0 mi NE 11.5 mph - N/A   Mostly Cloudy
3:36 PM 60.8 °F - 46.4 °F 59% 30.17 in 10.0 mi NE 11.5 mph - N/A   Mostly Cloudy
3:56 PM 60.8 °F - 48.2 °F 63% 30.16 in 10.0 mi NE 12.7 mph - N/A   Scattered Clouds
4:16 PM 60.8 °F - 46.4 °F 59% 30.16 in 10.0 mi NE 12.7 mph - N/A   Clear
4:36 PM 59.0 °F - 46.4 °F 63% 30.16 in 10.0 mi NE 12.7 mph - N/A   Mostly Cloudy
4:56 PM 59.0 °F - 46.4 °F 63% 30.16 in 10.0 mi NNE 11.5 mph - N/A   Mostly Cloudy
5:16 PM 57.2 °F - 46.4 °F 67% 30.15 in 10.0 mi NE 9.2 mph - N/A   Mostly Cloudy
5:36 PM 59.0 °F - 46.4 °F 63% 30.14 in 10.0 mi NNE 12.7 mph - N/A   Scattered Clouds
5:56 PM 60.8 °F - 46.4 °F 59% 30.14 in 10.0 mi NNE 11.5 mph - N/A   Clear
6:16 PM 60.8 °F - 48.2 °F 63% 30.13 in 10.0 mi NNE 9.2 mph - N/A   Scattered Clouds
6:36 PM 59.0 °F - 46.4 °F 63% 30.13 in 10.0 mi NE 10.4 mph - N/A   Mostly Cloudy
6:56 PM 59.0 °F - 48.2 °F 67% 30.12 in 10.0 mi NE 10.4 mph - N/A   Partly Cloudy
7:16 PM 60.8 °F - 46.4 °F 59% 30.12 in 10.0 mi NNE 10.4 mph - N/A   Scattered Clouds
7:36 PM 60.8 °F - 48.2 °F 63% 30.12 in 10.0 mi NNE 10.4 mph - N/A   Scattered Clouds
7:56 PM 57.2 °F - 46.4 °F 67% 30.12 in 10.0 mi NE 11.5 mph - N/A   Mostly Cloudy
8:16 PM 57.2 °F - 46.4 °F 67% 30.11 in 10.0 mi NE 13.8 mph - N/A   Mostly Cloudy
8:36 PM 59.0 °F - 46.4 °F 63% 30.11 in 10.0 mi NE 10.4 mph - N/A   Mostly Cloudy
8:56 PM 57.2 °F - 46.4 °F 67% 30.12 in 10.0 mi NE 9.2 mph - N/A   Mostly Cloudy
9:16 PM 57.2 °F - 46.4 °F 67% 30.11 in 10.0 mi NE 8.1 mph - N/A   Overcast
9:36 PM 57.2 °F - 46.4 °F 67% 30.11 in 10.0 mi NE 8.1 mph - N/A   Scattered Clouds
9:56 PM 55.4 °F - 46.4 °F 72% 30.11 in 10.0 mi ENE 6.9 mph - N/A   Clear
10:16 PM 55.4 °F - 46.4 °F 72% 30.11 in 10.0 mi Calm Calm - N/A   Clear
10:36 PM 53.6 °F - 46.4 °F 77% 30.12 in 10.0 mi East 4.6 mph - N/A   Clear
10:56 PM 53.6 °F - 46.4 °F 77% 30.12 in 10.0 mi ENE 6.9 mph - N/A   Clear
11:16 PM 53.6 °F - 44.6 °F 72% 30.13 in 10.0 mi ENE 6.9 mph - N/A   Clear
11:36 PM 53.6 °F - 44.6 °F 72% 30.13 in 10.0 mi ENE 6.9 mph - N/A   Clear
11:56 PM 51.8 °F - 44.6 °F 76% 30.13 in 10.0 mi East 4.6 mph - N/A   Clear